Time,TemperatureF,DewpointF,PressureIn,WindDirection,WindDirectionDegrees,WindSpeedMPH,WindSpeedGustMPH,Humidity,HourlyPrecipIn,Conditions,Clouds,dailyrainin,SoftwareType,DateUTC
2013-06-24 00:01:00,60.5,59.4,29.67,South,173,4.0,5.0,96,0.00,,,0.00,WeatherCatV1.15B25,2013-06-24 07:01:00,
2013-06-24 00:06:00,60.4,59.3,29.67,SSE,148,2.0,3.0,96,0.00,,,0.00,WeatherCatV1.15B25,2013-06-24 07:06:00,
2013-06-24 00:11:00,60.1,59.0,29.67,WSW,239,7.0,7.0,96,0.00,,,0.00,WeatherCatV1.15B25,2013-06-24 07:11:00,
2013-06-24 00:16:00,59.7,58.6,29.67,South,181,4.0,9.0,96,0.00,,,0.00,WeatherCatV1.15B25,2013-06-24 07:16:00,
2013-06-24 00:21:00,59.6,58.5,29.67,SSW,205,2.0,5.0,96,0.00,,,0.00,WeatherCatV1.15B25,2013-06-24 07:21:00,
2013-06-24 00:26:00,59.6,58.5,29.66,WSW,243,4.0,5.0,96,0.00,,,0.00,WeatherCatV1.15B25,2013-06-24 07:26:00,
2013-06-24 00:31:00,59.5,58.4,29.66,SW,215,3.0,6.0,96,0.00,,,0.00,WeatherCatV1.15B25,2013-06-24 07:31:00,
2013-06-24 00:36:00,59.5,58.4,29.66,SSE,159,4.0,7.0,96,0.00,,,0.00,WeatherCatV1.15B25,2013-06-24 07:36:00,
2013-06-24 00:41:00,59.4,58.3,29.66,South,190,3.0,4.0,96,0.00,,,0.00,WeatherCatV1.15B25,2013-06-24 07:41:00,
2013-06-24 00:46:00,59.4,58.3,29.66,SSE,156,4.0,6.0,96,0.00,,,0.00,WeatherCatV1.15B25,2013-06-24 07:46:00,
2013-06-24 00:51:00,59.4,58.5,29.66,SW,232,3.0,3.0,97,0.00,,,0.00,WeatherCatV1.15B25,2013-06-24 07:51:00,
2013-06-24 00:56:00,59.4,58.3,29.66,South,172,3.0,5.0,96,0.00,,,0.00,WeatherCatV1.15B25,2013-06-24 07:56:00,
2013-06-24 01:01:00,59.4,58.3,29.66,SSW,210,1.0,3.0,96,0.00,,,0.00,WeatherCatV1.15B25,2013-06-24 08:01:00,
2013-06-24 01:06:00,59.4,58.3,29.66,SSE,152,1.0,2.0,96,0.00,,,0.00,WeatherCatV1.15B25,2013-06-24 08:06:00,
2013-06-24 01:11:00,59.3,58.2,29.66,SSE,162,2.0,2.0,96,0.00,,,0.00,WeatherCatV1.15B25,2013-06-24 08:11:00,
2013-06-24 01:16:00,59.5,58.4,29.66,SSW,204,1.0,2.0,96,0.00,,,0.00,WeatherCatV1.15B25,2013-06-24 08:16:00,
2013-06-24 01:21:00,59.5,58.4,29.66,South,169,1.0,2.0,96,0.00,,,0.00,WeatherCatV1.15B25,2013-06-24 08:21:00,
2013-06-24 01:26:00,59.6,58.5,29.66,South,183,1.0,4.0,96,0.00,,,0.00,WeatherCatV1.15B25,2013-06-24 08:26:00,
2013-06-24 01:31:00,59.6,58.5,29.66,SSW,208,1.0,2.0,96,0.00,,,0.00,WeatherCatV1.15B25,2013-06-24 08:31:00,
2013-06-24 01:36:00,59.5,58.4,29.66,SSE,156,0.0,1.0,96,0.00,,,0.00,WeatherCatV1.15B25,2013-06-24 08:36:00,
2013-06-24 01:41:00,59.5,58.4,29.65,SE,136,1.0,4.0,96,0.00,,,0.00,WeatherCatV1.15B25,2013-06-24 08:41:00,
2013-06-24 01:46:00,59.4,58.3,29.65,SSE,153,1.0,4.0,96,0.00,,,0.00,WeatherCatV1.15B25,2013-06-24 08:46:00,
2013-06-24 01:51:00,59.3,58.2,29.65,SSW,195,0.0,2.0,96,0.00,,,0.00,WeatherCatV1.15B25,2013-06-24 08:51:00,
2013-06-24 01:56:00,59.3,58.2,29.65,SE,131,0.0,0.0,96,0.00,,,0.00,WeatherCatV1.15B25,2013-06-24 08:56:00,
2013-06-24 02:01:00,59.3,58.2,29.65,SE,135,0.0,0.0,96,0.00,,,0.00,WeatherCatV1.15B25,2013-06-24 09:01:00,
2013-06-24 02:06:00,59.3,58.2,29.65,ESE,113,0.0,0.0,96,0.00,,,0.00,WeatherCatV1.15B25,2013-06-24 09:06:00,
2013-06-24 02:11:00,59.2,58.1,29.65,East,82,0.0,0.0,96,0.00,,,0.00,WeatherCatV1.15B25,2013-06-24 09:11:00,
2013-06-24 02:16:00,59.2,58.1,29.65,SSE,165,0.0,0.0,96,0.00,,,0.00,WeatherCatV1.15B25,2013-06-24 09:16:00,
2013-06-24 02:20:00,59.1,58.0,29.65,SE,146,0.0,0.0,96,0.00,,,0.00,WeatherCatV1.15B25,2013-06-24 09:20:00,
2013-06-24 02:25:00,59.1,58.0,29.65,ESE,117,0.0,0.0,96,0.00,,,0.00,WeatherCatV1.15B25,2013-06-24 09:25:00,
2013-06-24 02:30:00,59.1,58.0,29.65,SE,131,0.0,0.0,96,0.00,,,0.01,WeatherCatV1.15B25,2013-06-24 09:30:00,
2013-06-24 02:35:00,59.0,57.9,29.64,ESE,107,0.0,0.0,96,0.00,,,0.01,WeatherCatV1.15B25,2013-06-24 09:35:00,
2013-06-24 02:40:00,59.0,57.9,29.64,ESE,103,1.0,2.0,96,0.00,,,0.01,WeatherCatV1.15B25,2013-06-24 09:40:00,
2013-06-24 02:45:00,59.0,57.9,29.65,ENE,71,1.0,2.0,96,0.00,,,0.01,WeatherCatV1.15B25,2013-06-24 09:45:00,
2013-06-24 02:50:00,59.0,57.9,29.64,East,84,2.0,3.0,96,0.00,,,0.01,WeatherCatV1.15B25,2013-06-24 09:50:00,
2013-06-24 02:52:00,59.1,58.0,29.64,East,96,1.0,3.0,96,0.00,,,0.02,WeatherCatV1.15B25,2013-06-24 09:52:00,
2013-06-24 02:57:00,59.0,58.1,29.64,ESE,111,1.0,3.0,97,0.00,,,0.02,WeatherCatV1.15B25,2013-06-24 09:57:00,
2013-06-24 03:02:00,59.1,58.2,29.64,East,96,2.0,2.0,97,0.00,,,0.02,WeatherCatV1.15B25,2013-06-24 10:02:00,
2013-06-24 03:07:00,59.0,58.1,29.64,East,92,3.0,3.0,97,0.00,,,0.02,WeatherCatV1.15B25,2013-06-24 10:07:00,
2013-06-24 03:12:00,59.0,58.1,29.64,ENE,75,1.0,2.0,97,0.00,,,0.02,WeatherCatV1.15B25,2013-06-24 10:12:00,
2013-06-24 03:17:00,59.0,58.1,29.64,East,96,2.0,2.0,97,0.00,,,0.02,WeatherCatV1.15B25,2013-06-24 10:17:00,
2013-06-24 03:22:00,58.9,58.0,29.64,SE,124,0.0,1.0,97,0.00,,,0.02,WeatherCatV1.15B25,2013-06-24 10:22:00,
2013-06-24 03:27:00,58.9,58.0,29.63,ESE,117,0.0,1.0,97,0.00,,,0.02,WeatherCatV1.15B25,2013-06-24 10:27:00,
2013-06-24 03:32:00,58.8,57.9,29.63,NE,49,0.0,3.0,97,0.00,,,0.02,WeatherCatV1.15B25,2013-06-24 10:32:00,
2013-06-24 03:37:00,58.8,57.9,29.63,East,98,1.0,1.0,97,0.00,,,0.02,WeatherCatV1.15B25,2013-06-24 10:37:00,
2013-06-24 03:42:00,58.9,58.0,29.63,SSE,152,1.0,1.0,97,0.00,,,0.02,WeatherCatV1.15B25,2013-06-24 10:42:00,
2013-06-24 03:47:00,58.9,58.0,29.63,SE,138,0.0,0.0,97,0.00,,,0.02,WeatherCatV1.15B25,2013-06-24 10:47:00,
2013-06-24 03:52:00,58.8,57.9,29.63,SE,138,0.0,2.0,97,0.00,,,0.02,WeatherCatV1.15B25,2013-06-24 10:52:00,
2013-06-24 03:57:00,58.8,57.9,29.63,ESE,119,0.0,0.0,97,0.00,,,0.02,WeatherCatV1.15B25,2013-06-24 10:57:00,
2013-06-24 04:02:00,58.8,57.9,29.63,SE,127,0.0,1.0,97,0.00,,,0.02,WeatherCatV1.15B25,2013-06-24 11:02:00,
2013-06-24 04:07:00,58.7,57.8,29.63,ESE,103,0.0,1.0,97,0.00,,,0.02,WeatherCatV1.15B25,2013-06-24 11:07:00,
2013-06-24 04:12:00,58.6,57.7,29.63,ESE,103,0.0,0.0,97,0.00,,,0.02,WeatherCatV1.15B25,2013-06-24 11:12:00,
2013-06-24 04:17:00,58.5,57.6,29.63,ESE,103,0.0,0.0,97,0.00,,,0.02,WeatherCatV1.15B25,2013-06-24 11:17:00,
2013-06-24 04:22:00,58.5,57.6,29.63,ESE,103,0.0,1.0,97,0.00,,,0.02,WeatherCatV1.15B25,2013-06-24 11:22:00,
2013-06-24 04:27:00,58.4,57.5,29.63,ESE,103,0.0,0.0,97,0.00,,,0.02,WeatherCatV1.15B25,2013-06-24 11:27:00,
2013-06-24 04:32:00,58.3,57.5,29.63,East,100,0.0,0.0,97,0.00,,,0.02,WeatherCatV1.15B25,2013-06-24 11:32:00,
2013-06-24 04:37:00,58.3,57.5,29.63,East,100,0.0,0.0,97,0.00,,,0.02,WeatherCatV1.15B25,2013-06-24 11:37:00,
2013-06-24 04:42:00,58.4,57.5,29.63,East,100,0.0,0.0,97,0.00,,,0.02,WeatherCatV1.15B25,2013-06-24 11:42:00,
2013-06-24 04:47:00,58.4,57.5,29.63,East,100,0.0,0.0,97,0.00,,,0.02,WeatherCatV1.15B25,2013-06-24 11:47:00,
2013-06-24 04:52:00,58.4,57.5,29.63,ENE,70,0.0,0.0,97,0.00,,,0.02,WeatherCatV1.15B25,2013-06-24 11:52:00,
2013-06-24 04:57:00,58.4,57.5,29.63,ENE,59,0.0,0.0,97,0.00,,,0.02,WeatherCatV1.15B25,2013-06-24 11:57:00,
2013-06-24 05:02:00,58.4,57.5,29.63,ENE,59,0.0,0.0,97,0.00,,,0.02,WeatherCatV1.15B25,2013-06-24 12:02:00,
2013-06-24 05:07:00,58.4,57.5,29.63,ENE,57,0.0,0.0,97,0.00,,,0.02,WeatherCatV1.15B25,2013-06-24 12:07:00,
2013-06-24 05:12:00,58.3,57.5,29.63,ENE,57,0.0,0.0,97,0.00,,,0.02,WeatherCatV1.15B25,2013-06-24 12:12:00,
2013-06-24 05:17:00,58.3,57.5,29.63,ENE,57,0.0,0.0,97,0.00,,,0.02,WeatherCatV1.15B25,2013-06-24 12:17:00,
2013-06-24 05:22:00,58.2,57.4,29.63,ENE,57,0.0,0.0,97,0.00,,,0.02,WeatherCatV1.15B25,2013-06-24 12:22:00,
2013-06-24 05:27:00,58.3,57.5,29.63,ENE,57,0.0,0.0,97,0.00,,,0.02,WeatherCatV1.15B25,2013-06-24 12:27:00,
2013-06-24 05:32:00,58.2,57.4,29.63,ENE,75,0.0,0.0,97,0.00,,,0.02,WeatherCatV1.15B25,2013-06-24 12:32:00,
2013-06-24 05:37:00,58.2,57.4,29.63,ENE,75,0.0,0.0,97,0.00,,,0.02,WeatherCatV1.15B25,2013-06-24 12:37:00,
2013-06-24 05:42:00,58.2,57.4,29.63,ENE,75,0.0,0.0,97,0.00,,,0.02,WeatherCatV1.15B25,2013-06-24 12:42:00,
2013-06-24 05:47:00,58.3,57.5,29.63,ENE,75,0.0,0.0,97,0.00,,,0.02,WeatherCatV1.15B25,2013-06-24 12:47:00,
2013-06-24 05:52:00,58.3,57.5,29.64,ENE,76,0.0,0.0,97,0.00,,,0.02,WeatherCatV1.15B25,2013-06-24 12:52:00,
2013-06-24 05:57:00,58.4,57.8,29.64,South,188,0.0,0.0,98,0.00,,,0.02,WeatherCatV1.15B25,2013-06-24 12:57:00,
2013-06-24 06:02:00,58.5,57.9,29.64,WSW,243,4.0,4.0,98,0.00,,,0.02,WeatherCatV1.15B25,2013-06-24 13:02:00,
2013-06-24 06:07:00,58.6,58.0,29.65,South,180,2.0,5.0,98,0.00,,,0.02,WeatherCatV1.15B25,2013-06-24 13:07:00,
2013-06-24 06:12:00,58.5,57.9,29.65,SSW,197,7.0,9.0,98,0.00,,,0.03,WeatherCatV1.15B25,2013-06-24 13:12:00,
2013-06-24 06:17:00,58.6,58.0,29.66,SSW,212,6.0,7.0,98,0.30,,,0.05,WeatherCatV1.15B25,2013-06-24 13:17:00,
2013-06-24 06:22:00,58.3,57.5,29.66,SSW,194,6.0,19.0,97,0.31,,,0.10,WeatherCatV1.15B25,2013-06-24 13:22:00,
2013-06-24 06:27:00,57.8,57.0,29.67,WSW,245,13.0,18.0,97,0.15,,,0.11,WeatherCatV1.15B25,2013-06-24 13:27:00,
2013-06-24 06:32:00,57.2,56.1,29.67,SSW,199,7.0,11.0,96,0.25,,,0.13,WeatherCatV1.15B25,2013-06-24 13:32:00,
2013-06-24 06:37:00,56.8,55.7,29.67,SW,233,8.0,8.0,96,0.21,,,0.14,WeatherCatV1.15B25,2013-06-24 13:37:00,
2013-06-24 06:42:00,56.5,55.4,29.68,SW,221,9.0,15.0,96,0.12,,,0.15,WeatherCatV1.15B25,2013-06-24 13:42:00,
2013-06-24 06:47:00,56.3,55.2,29.68,SSW,194,6.0,14.0,96,0.08,,,0.15,WeatherCatV1.15B25,2013-06-24 13:47:00,
2013-06-24 06:52:00,56.2,55.1,29.68,SSW,202,6.0,13.0,96,0.05,,,0.15,WeatherCatV1.15B25,2013-06-24 13:52:00,
2013-06-24 06:57:00,56.1,55.0,29.68,South,181,6.0,16.0,96,0.00,,,0.15,WeatherCatV1.15B25,2013-06-24 13:57:00,
2013-06-24 07:02:00,56.0,54.9,29.69,SSW,193,13.0,16.0,96,0.00,,,0.15,WeatherCatV1.15B25,2013-06-24 14:02:00,
2013-06-24 07:07:00,55.9,54.8,29.68,SSW,204,10.0,12.0,96,0.00,,,0.15,WeatherCatV1.15B25,2013-06-24 14:07:00,
2013-06-24 07:12:00,55.8,54.7,29.69,SE,132,0.0,12.0,96,0.00,,,0.16,WeatherCatV1.15B25,2013-06-24 14:12:00,
2013-06-24 07:17:00,55.8,54.7,29.69,West,274,1.0,18.0,96,0.00,,,0.16,WeatherCatV1.15B25,2013-06-24 14:17:00,
2013-06-24 07:22:00,55.8,54.7,29.69,SSE,149,13.0,14.0,96,0.04,,,0.17,WeatherCatV1.15B25,2013-06-24 14:22:00,
2013-06-24 07:27:00,55.7,54.6,29.69,SSW,208,13.0,15.0,96,0.04,,,0.17,WeatherCatV1.15B25,2013-06-24 14:27:00,
2013-06-24 07:32:00,55.6,54.5,29.69,SSW,203,9.0,12.0,96,0.04,,,0.17,WeatherCatV1.15B25,2013-06-24 14:32:00,
2013-06-24 07:37:00,55.6,54.5,29.69,WSW,242,3.0,7.0,96,0.06,,,0.18,WeatherCatV1.15B25,2013-06-24 14:37:00,
2013-06-24 07:42:00,55.5,54.4,29.69,SW,232,3.0,8.0,96,0.06,,,0.18,WeatherCatV1.15B25,2013-06-24 14:42:00,
2013-06-24 07:47:00,55.5,54.4,29.69,SSW,208,3.0,9.0,96,0.06,,,0.19,WeatherCatV1.15B25,2013-06-24 14:47:00,
2013-06-24 07:52:00,55.5,54.4,29.70,SSW,199,4.0,7.0,96,0.07,,,0.20,WeatherCatV1.15B25,2013-06-24 14:52:00,
2013-06-24 07:57:00,55.5,54.1,29.70,South,183,3.0,6.0,95,0.07,,,0.20,WeatherCatV1.15B25,2013-06-24 14:57:00,
2013-06-24 08:02:00,55.5,54.1,29.70,SSE,165,4.0,10.0,95,0.05,,,0.20,WeatherCatV1.15B25,2013-06-24 15:02:00,
2013-06-24 08:07:00,55.5,54.1,29.70,WSW,249,11.0,11.0,95,0.04,,,0.20,WeatherCatV1.15B25,2013-06-24 15:07:00,
2013-06-24 08:10:00,55.5,54.1,29.70,SW,233,1.0,10.0,95,0.00,,,0.20,WeatherCatV1.15B25,2013-06-24 15:10:00,
2013-06-24 08:15:00,55.5,54.1,29.70,SSW,204,4.0,6.0,95,0.00,,,0.20,WeatherCatV1.15B25,2013-06-24 15:15:00,
2013-06-24 08:20:00,55.6,54.2,29.70,South,179,4.0,5.0,95,0.00,,,0.20,WeatherCatV1.15B25,2013-06-24 15:20:00,
2013-06-24 08:25:00,55.6,54.2,29.70,SSE,153,3.0,14.0,95,0.00,,,0.21,WeatherCatV1.15B25,2013-06-24 15:25:00,
2013-06-24 08:30:00,55.7,54.3,29.70,South,179,2.0,4.0,95,0.00,,,0.21,WeatherCatV1.15B25,2013-06-24 15:30:00,
2013-06-24 08:35:00,55.9,54.8,29.71,SW,224,3.0,4.0,96,0.00,,,0.21,WeatherCatV1.15B25,2013-06-24 15:35:00,
2013-06-24 08:40:00,56.2,55.1,29.71,South,170,5.0,6.0,96,0.00,,,0.21,WeatherCatV1.15B25,2013-06-24 15:40:00,
2013-06-24 08:45:00,56.4,55.3,29.71,ESE,118,0.0,3.0,96,0.00,,,0.21,WeatherCatV1.15B25,2013-06-24 15:45:00,
2013-06-24 08:50:00,56.6,55.5,29.71,South,190,2.0,5.0,96,0.00,,,0.21,WeatherCatV1.15B25,2013-06-24 15:50:00,
2013-06-24 08:55:00,56.6,55.5,29.71,South,176,3.0,5.0,96,0.00,,,0.21,WeatherCatV1.15B25,2013-06-24 15:55:00,
2013-06-24 09:00:00,56.6,55.2,29.71,SSE,164,2.0,4.0,95,0.00,,,0.21,WeatherCatV1.15B25,2013-06-24 16:00:00,
2013-06-24 09:05:00,56.7,55.3,29.71,SE,142,4.0,12.0,95,0.00,,,0.22,WeatherCatV1.15B25,2013-06-24 16:05:00,
2013-06-24 09:10:00,56.7,55.3,29.71,SSE,156,3.0,4.0,95,0.00,,,0.22,WeatherCatV1.15B25,2013-06-24 16:10:00,
2013-06-24 09:15:00,56.8,55.4,29.72,SE,139,2.0,5.0,95,0.00,,,0.22,WeatherCatV1.15B25,2013-06-24 16:15:00,
2013-06-24 09:20:00,56.9,55.5,29.72,SSW,206,1.0,4.0,95,0.00,,,0.22,WeatherCatV1.15B25,2013-06-24 16:20:00,
2013-06-24 09:25:00,57.0,55.6,29.72,SSE,162,1.0,3.0,95,0.00,,,0.22,WeatherCatV1.15B25,2013-06-24 16:25:00,
2013-06-24 09:30:00,57.3,55.6,29.72,SSW,197,2.0,2.0,94,0.00,,,0.22,WeatherCatV1.15B25,2013-06-24 16:30:00,
2013-06-24 09:35:00,57.4,55.7,29.72,SE,146,1.0,5.0,94,0.00,,,0.22,WeatherCatV1.15B25,2013-06-24 16:35:00,
2013-06-24 09:40:00,57.6,55.9,29.72,WNW,283,2.0,3.0,94,0.00,,,0.22,WeatherCatV1.15B25,2013-06-24 16:40:00,
2013-06-24 09:46:00,57.7,56.0,29.72,SE,127,0.0,3.0,94,0.00,,,0.22,WeatherCatV1.15B25,2013-06-24 16:46:00,
2013-06-24 09:51:00,58.1,56.4,29.72,SE,143,0.0,4.0,94,0.00,,,0.22,WeatherCatV1.15B25,2013-06-24 16:51:00,
2013-06-24 09:56:00,58.3,56.0,29.72,SE,146,3.0,4.0,92,0.00,,,0.22,WeatherCatV1.15B25,2013-06-24 16:56:00,
2013-06-24 10:01:00,58.3,55.7,29.72,SSW,201,2.0,9.0,91,0.00,,,0.22,WeatherCatV1.15B25,2013-06-24 17:01:00,
2013-06-24 10:06:00,58.5,55.9,29.72,SSW,212,4.0,4.0,91,0.00,,,0.22,WeatherCatV1.15B25,2013-06-24 17:06:00,
2013-06-24 10:11:00,58.8,56.2,29.72,SSW,210,1.0,2.0,91,0.00,,,0.22,WeatherCatV1.15B25,2013-06-24 17:11:00,
2013-06-24 10:16:00,58.8,55.3,29.72,SSE,150,2.0,5.0,88,0.00,,,0.22,WeatherCatV1.15B25,2013-06-24 17:16:00,
2013-06-24 10:21:00,59.0,55.8,29.72,SE,146,1.0,6.0,89,0.00,,,0.22,WeatherCatV1.15B25,2013-06-24 17:21:00,
2013-06-24 10:26:00,59.3,55.7,29.72,SE,142,3.0,4.0,88,0.00,,,0.22,WeatherCatV1.15B25,2013-06-24 17:26:00,
2013-06-24 10:31:00,59.6,56.0,29.72,SW,217,1.0,4.0,88,0.00,,,0.22,WeatherCatV1.15B25,2013-06-24 17:31:00,
2013-06-24 10:36:00,59.8,55.9,29.72,SE,139,3.0,5.0,87,0.00,,,0.22,WeatherCatV1.15B25,2013-06-24 17:36:00,
2013-06-24 10:41:00,59.8,55.3,29.72,SSE,150,3.0,7.0,85,0.00,,,0.22,WeatherCatV1.15B25,2013-06-24 17:41:00,
2013-06-24 10:46:00,60.1,55.9,29.72,SSW,197,1.0,4.0,86,0.00,,,0.22,WeatherCatV1.15B25,2013-06-24 17:46:00,
2013-06-24 10:51:00,60.4,55.9,29.72,SSW,196,4.0,6.0,85,0.00,,,0.22,WeatherCatV1.15B25,2013-06-24 17:51:00,
2013-06-24 10:56:00,60.4,55.5,29.72,South,190,4.0,7.0,84,0.00,,,0.22,WeatherCatV1.15B25,2013-06-24 17:56:00,
2013-06-24 11:01:00,60.5,55.0,29.72,SSW,212,3.0,8.0,82,0.00,,,0.22,WeatherCatV1.15B25,2013-06-24 18:01:00,
2013-06-24 11:06:00,60.5,55.0,29.72,South,187,3.0,3.0,82,0.00,,,0.22,WeatherCatV1.15B25,2013-06-24 18:06:00,
2013-06-24 11:11:00,60.9,55.7,29.72,South,186,2.0,3.0,83,0.00,,,0.22,WeatherCatV1.15B25,2013-06-24 18:11:00,
2013-06-24 11:16:00,60.9,55.7,29.72,SSE,150,3.0,6.0,83,0.00,,,0.22,WeatherCatV1.15B25,2013-06-24 18:16:00,
2013-06-24 11:21:00,61.0,56.1,29.72,SSW,197,1.0,4.0,84,0.00,,,0.22,WeatherCatV1.15B25,2013-06-24 18:21:00,
2013-06-24 11:26:00,61.3,56.4,29.72,SSW,207,3.0,5.0,84,0.00,,,0.22,WeatherCatV1.15B25,2013-06-24 18:26:00,
2013-06-24 11:31:00,61.4,55.9,29.72,South,175,2.0,3.0,82,0.00,,,0.22,WeatherCatV1.15B25,2013-06-24 18:31:00,
2013-06-24 11:36:00,61.7,55.8,29.72,SSE,149,1.0,6.0,81,0.00,,,0.22,WeatherCatV1.15B25,2013-06-24 18:36:00,
2013-06-24 11:41:00,61.9,55.7,29.72,SW,223,4.0,8.0,80,0.00,,,0.22,WeatherCatV1.15B25,2013-06-24 18:41:00,
2013-06-24 11:46:00,61.2,55.0,29.72,SSW,206,5.0,7.0,80,0.00,,,0.22,WeatherCatV1.15B25,2013-06-24 18:46:00,
2013-06-24 11:51:00,61.3,56.1,29.72,WSW,257,2.0,4.0,83,0.00,,,0.22,WeatherCatV1.15B25,2013-06-24 18:51:00,
2013-06-24 11:56:00,60.9,54.7,29.73,WSW,243,1.0,8.0,80,0.00,,,0.22,WeatherCatV1.15B25,2013-06-24 18:56:00,
2013-06-24 12:01:00,60.8,55.6,29.73,SW,225,3.0,4.0,83,0.00,,,0.22,WeatherCatV1.15B25,2013-06-24 19:01:00,
2013-06-24 12:06:00,61.0,56.1,29.72,SSW,197,1.0,3.0,84,0.00,,,0.22,WeatherCatV1.15B25,2013-06-24 19:06:00,
2013-06-24 12:11:00,61.3,55.4,29.73,WSW,245,2.0,6.0,81,0.00,,,0.22,WeatherCatV1.15B25,2013-06-24 19:11:00,
2013-06-24 12:16:00,61.6,55.4,29.73,SSE,155,3.0,8.0,80,0.00,,,0.22,WeatherCatV1.15B25,2013-06-24 19:16:00,
2013-06-24 12:21:00,62.0,55.8,29.72,SSE,155,2.0,6.0,80,0.00,,,0.22,WeatherCatV1.15B25,2013-06-24 19:21:00,
2013-06-24 12:26:00,62.7,55.7,29.72,SSE,150,3.0,4.0,78,0.00,,,0.22,WeatherCatV1.15B25,2013-06-24 19:26:00,
2013-06-24 12:31:00,63.2,55.5,29.72,SW,231,2.0,3.0,76,0.00,,,0.22,WeatherCatV1.15B25,2013-06-24 19:31:00,
2013-06-24 12:36:00,63.3,55.2,29.72,SSE,152,4.0,7.0,75,0.00,,,0.22,WeatherCatV1.15B25,2013-06-24 19:36:00,
2013-06-24 12:41:00,63.1,55.0,29.72,SSE,152,4.0,5.0,75,0.00,,,0.22,WeatherCatV1.15B25,2013-06-24 19:41:00,
2013-06-24 12:46:00,62.8,55.1,29.72,South,172,4.0,5.0,76,0.00,,,0.22,WeatherCatV1.15B25,2013-06-24 19:46:00,
2013-06-24 12:51:00,62.8,54.4,29.72,SW,232,3.0,4.0,74,0.00,,,0.22,WeatherCatV1.15B25,2013-06-24 19:51:00,
2013-06-24 12:56:00,62.6,54.9,29.72,WSW,252,4.0,4.0,76,0.00,,,0.22,WeatherCatV1.15B25,2013-06-24 19:56:00,
2013-06-24 13:01:00,62.5,55.2,29.72,SW,226,1.0,2.0,77,0.00,,,0.22,WeatherCatV1.15B25,2013-06-24 20:01:00,
2013-06-24 13:06:00,62.7,55.4,29.72,SSW,205,2.0,3.0,77,0.00,,,0.22,WeatherCatV1.15B25,2013-06-24 20:06:00,
2013-06-24 13:11:00,62.6,54.6,29.72,SSE,167,3.0,4.0,75,0.00,,,0.22,WeatherCatV1.15B25,2013-06-24 20:11:00,
2013-06-24 13:16:00,63.0,55.7,29.72,West,273,1.0,3.0,77,0.00,,,0.22,WeatherCatV1.15B25,2013-06-24 20:16:00,
2013-06-24 13:21:00,62.9,54.8,29.72,West,264,0.0,4.0,75,0.00,,,0.22,WeatherCatV1.15B25,2013-06-24 20:21:00,
2013-06-24 13:26:00,62.8,54.8,29.72,SSE,167,1.0,4.0,75,0.00,,,0.22,WeatherCatV1.15B25,2013-06-24 20:26:00,
2013-06-24 13:31:00,62.6,54.9,29.72,SSW,194,3.0,6.0,76,0.00,,,0.22,WeatherCatV1.15B25,2013-06-24 20:31:00,
2013-06-24 13:36:00,62.5,56.6,29.72,SE,125,0.0,2.0,81,0.00,,,0.22,WeatherCatV1.15B25,2013-06-24 20:36:00,
2013-06-24 13:41:00,62.3,56.4,29.72,East,98,0.0,2.0,81,0.00,,,0.22,WeatherCatV1.15B25,2013-06-24 20:41:00,
2013-06-24 13:46:00,62.6,57.7,29.72,East,98,0.0,2.0,84,0.00,,,0.22,WeatherCatV1.15B25,2013-06-24 20:46:00,
2013-06-24 13:51:00,63.5,57.6,29.72,ENE,63,1.0,2.0,81,0.00,,,0.22,WeatherCatV1.15B25,2013-06-24 20:51:00,
2013-06-24 13:56:00,63.4,56.4,29.72,ESE,112,1.0,3.0,78,0.00,,,0.22,WeatherCatV1.15B25,2013-06-24 20:56:00,
2013-06-24 14:01:00,63.9,57.3,29.72,ESE,102,1.0,1.0,79,0.00,,,0.22,WeatherCatV1.15B25,2013-06-24 21:01:00,
2013-06-24 14:06:00,64.4,57.0,29.72,SSE,153,0.0,3.0,77,0.00,,,0.22,WeatherCatV1.15B25,2013-06-24 21:06:00,
2013-06-24 14:11:00,65.0,56.9,29.72,SE,133,1.0,1.0,75,0.00,,,0.22,WeatherCatV1.15B25,2013-06-24 21:11:00,
2013-06-24 14:16:00,65.5,56.2,29.72,SSW,200,1.0,4.0,72,0.00,,,0.22,WeatherCatV1.15B25,2013-06-24 21:16:00,
2013-06-24 14:21:00,65.6,56.7,29.72,South,179,3.0,3.0,73,0.00,,,0.22,WeatherCatV1.15B25,2013-06-24 21:21:00,
2013-06-24 14:26:00,66.0,56.3,29.72,South,190,1.0,2.0,71,0.00,,,0.22,WeatherCatV1.15B25,2013-06-24 21:26:00,
2013-06-24 14:31:00,65.6,55.9,29.72,SSE,162,2.0,5.0,71,0.00,,,0.22,WeatherCatV1.15B25,2013-06-24 21:31:00,
2013-06-24 14:36:00,64.9,55.7,29.72,WSW,246,3.0,6.0,72,0.00,,,0.22,WeatherCatV1.15B25,2013-06-24 21:36:00,
2013-06-24 14:41:00,64.4,55.2,29.72,South,188,7.0,8.0,72,0.00,,,0.22,WeatherCatV1.15B25,2013-06-24 21:41:00,
2013-06-24 14:46:00,64.4,55.2,29.72,SW,236,1.0,5.0,72,0.00,,,0.22,WeatherCatV1.15B25,2013-06-24 21:46:00,
2013-06-24 14:51:00,64.3,55.1,29.72,NW,310,0.0,1.0,72,0.00,,,0.22,WeatherCatV1.15B25,2013-06-24 21:51:00,
2013-06-24 14:56:00,64.5,55.3,29.72,WSW,255,0.0,1.0,72,0.00,,,0.22,WeatherCatV1.15B25,2013-06-24 21:56:00,
2013-06-24 15:01:00,64.5,54.9,29.72,West,263,0.0,5.0,71,0.00,,,0.22,WeatherCatV1.15B25,2013-06-24 22:01:00,
2013-06-24 15:06:00,64.7,54.7,29.72,WSW,255,5.0,7.0,70,0.00,,,0.22,WeatherCatV1.15B25,2013-06-24 22:06:00,
2013-06-24 15:11:00,64.6,53.8,29.72,WSW,252,7.0,8.0,68,0.00,,,0.22,WeatherCatV1.15B25,2013-06-24 22:11:00,
2013-06-24 15:16:00,64.8,54.8,29.72,SW,215,3.0,5.0,70,0.00,,,0.22,WeatherCatV1.15B25,2013-06-24 22:16:00,
2013-06-24 15:21:00,65.2,54.8,29.72,WSW,255,4.0,7.0,69,0.00,,,0.22,WeatherCatV1.15B25,2013-06-24 22:21:00,
2013-06-24 15:26:00,65.8,54.9,29.72,WNW,290,3.0,5.0,68,0.00,,,0.22,WeatherCatV1.15B25,2013-06-24 22:26:00,
2013-06-24 15:31:00,65.6,54.7,29.72,WNW,294,3.0,5.0,68,0.00,,,0.22,WeatherCatV1.15B25,2013-06-24 22:31:00,
2013-06-24 15:36:00,65.8,54.5,29.72,SE,133,1.0,3.0,67,0.00,,,0.22,WeatherCatV1.15B25,2013-06-24 22:36:00,
2013-06-24 15:41:00,67.2,55.9,29.72,NNW,341,2.0,4.0,67,0.00,,,0.22,WeatherCatV1.15B25,2013-06-24 22:41:00,
2013-06-24 15:46:00,67.1,54.9,29.72,South,170,1.0,4.0,65,0.00,,,0.22,WeatherCatV1.15B25,2013-06-24 22:46:00,
2013-06-24 15:51:00,66.5,54.4,29.72,WNW,295,3.0,4.0,65,0.00,,,0.22,WeatherCatV1.15B25,2013-06-24 22:51:00,
2013-06-24 15:56:00,65.7,54.0,29.72,South,183,1.0,5.0,66,0.00,,,0.22,WeatherCatV1.15B25,2013-06-24 22:56:00,
2013-06-24 16:01:00,65.9,54.6,29.72,South,179,8.0,10.0,67,0.00,,,0.22,WeatherCatV1.15B25,2013-06-24 23:01:00,
2013-06-24 16:06:00,65.4,54.1,29.72,SSE,158,4.0,8.0,67,0.00,,,0.22,WeatherCatV1.15B25,2013-06-24 23:06:00,
2013-06-24 16:11:00,65.3,54.5,29.72,SSW,201,1.0,3.0,68,0.00,,,0.22,WeatherCatV1.15B25,2013-06-24 23:11:00,
2013-06-24 16:16:00,65.7,54.4,29.72,SSW,195,6.0,6.0,67,0.00,,,0.22,WeatherCatV1.15B25,2013-06-24 23:16:00,
2013-06-24 16:21:00,65.5,54.2,29.72,SSE,167,1.0,7.0,67,0.00,,,0.22,WeatherCatV1.15B25,2013-06-24 23:21:00,
2013-06-24 16:26:00,65.3,55.3,29.72,SW,235,6.0,7.0,70,0.00,,,0.22,WeatherCatV1.15B25,2013-06-24 23:26:00,
2013-06-24 16:31:00,65.3,54.5,29.72,SSE,160,4.0,4.0,68,0.00,,,0.22,WeatherCatV1.15B25,2013-06-24 23:31:00,
2013-06-24 16:36:00,65.8,55.7,29.72,SSE,150,0.0,7.0,70,0.00,,,0.22,WeatherCatV1.15B25,2013-06-24 23:36:00,
2013-06-24 16:41:00,65.8,56.9,29.72,SSE,165,4.0,7.0,73,0.00,,,0.22,WeatherCatV1.15B25,2013-06-24 23:41:00,
2013-06-24 16:46:00,65.5,57.0,29.72,SE,133,4.0,6.0,74,0.00,,,0.22,WeatherCatV1.15B25,2013-06-24 23:46:00,
2013-06-24 16:51:00,65.7,57.9,29.72,SSE,159,4.0,5.0,76,0.00,,,0.22,WeatherCatV1.15B25,2013-06-24 23:51:00,
2013-06-24 16:56:00,65.9,57.4,29.72,SE,134,4.0,6.0,74,0.00,,,0.22,WeatherCatV1.15B25,2013-06-24 23:56:00,
2013-06-24 17:01:00,66.4,57.1,29.72,ENE,64,1.0,4.0,72,0.00,,,0.22,WeatherCatV1.15B25,2013-06-25 00:01:00,
2013-06-24 17:06:00,66.7,57.0,29.72,ESE,108,1.0,7.0,71,0.00,,,0.22,WeatherCatV1.15B25,2013-06-25 00:06:00,
2013-06-24 17:11:00,67.5,57.4,29.72,East,100,3.0,6.0,70,0.00,,,0.22,WeatherCatV1.15B25,2013-06-25 00:11:00,
2013-06-24 17:16:00,68.0,57.4,29.72,SSW,212,1.0,3.0,69,0.00,,,0.22,WeatherCatV1.15B25,2013-06-25 00:16:00,
2013-06-24 17:21:00,68.2,56.4,29.72,SSE,162,6.0,7.0,66,0.00,,,0.22,WeatherCatV1.15B25,2013-06-25 00:21:00,
2013-06-24 17:26:00,67.9,57.7,29.72,ESE,114,1.0,4.0,70,0.00,,,0.22,WeatherCatV1.15B25,2013-06-25 00:26:00,
2013-06-24 17:31:00,67.7,56.7,29.72,SE,131,1.0,4.0,68,0.00,,,0.22,WeatherCatV1.15B25,2013-06-25 00:31:00,
2013-06-24 17:36:00,67.3,56.4,29.72,NE,46,1.0,2.0,68,0.00,,,0.22,WeatherCatV1.15B25,2013-06-25 00:36:00,
2013-06-24 17:41:00,67.7,56.7,29.71,ESE,123,6.0,6.0,68,0.00,,,0.22,WeatherCatV1.15B25,2013-06-25 00:41:00,
2013-06-24 17:46:00,67.5,57.0,29.71,West,276,0.0,4.0,69,0.00,,,0.22,WeatherCatV1.15B25,2013-06-25 00:46:00,
2013-06-24 17:51:00,66.9,56.8,29.71,SW,224,0.0,5.0,70,0.00,,,0.22,WeatherCatV1.15B25,2013-06-25 00:51:00,
2013-06-24 17:56:00,66.5,56.8,29.72,SE,146,1.0,2.0,71,0.00,,,0.22,WeatherCatV1.15B25,2013-06-25 00:56:00,
2013-06-24 18:01:00,66.3,56.6,29.71,ESE,105,1.0,1.0,71,0.00,,,0.22,WeatherCatV1.15B25,2013-06-25 01:01:00,
2013-06-24 18:06:00,66.9,57.2,29.72,South,169,4.0,4.0,71,0.00,,,0.22,WeatherCatV1.15B25,2013-06-25 01:06:00,
2013-06-24 18:11:00,67.0,56.9,29.72,WSW,239,4.0,5.0,70,0.00,,,0.22,WeatherCatV1.15B25,2013-06-25 01:11:00,
2013-06-24 18:16:00,66.3,56.6,29.72,SE,144,9.0,13.0,71,0.00,,,0.22,WeatherCatV1.15B25,2013-06-25 01:16:00,
2013-06-24 18:21:00,64.5,56.4,29.72,South,170,3.0,8.0,75,0.00,,,0.22,WeatherCatV1.15B25,2013-06-25 01:21:00,
2013-06-24 18:26:00,63.6,56.6,29.73,SE,129,3.0,3.0,78,0.00,,,0.22,WeatherCatV1.15B25,2013-06-25 01:26:00,
2013-06-24 18:31:00,63.0,56.4,29.73,ESE,118,2.0,6.0,79,0.00,,,0.22,WeatherCatV1.15B25,2013-06-25 01:31:00,
2013-06-24 18:36:00,62.5,56.6,29.73,SSE,159,2.0,4.0,81,0.00,,,0.22,WeatherCatV1.15B25,2013-06-25 01:36:00,
2013-06-24 18:41:00,62.0,55.8,29.73,South,179,3.0,5.0,80,0.00,,,0.22,WeatherCatV1.15B25,2013-06-25 01:41:00,
2013-06-24 18:46:00,61.8,55.9,29.73,SSW,207,2.0,3.0,81,0.00,,,0.22,WeatherCatV1.15B25,2013-06-25 01:46:00,
2013-06-24 18:51:00,61.7,55.8,29.73,South,169,1.0,3.0,81,0.00,,,0.22,WeatherCatV1.15B25,2013-06-25 01:51:00,
2013-06-24 18:56:00,62.1,56.2,29.73,SE,142,1.0,3.0,81,0.00,,,0.22,WeatherCatV1.15B25,2013-06-25 01:56:00,
2013-06-24 19:01:00,62.1,56.5,29.73,SE,140,0.0,3.0,82,0.00,,,0.22,WeatherCatV1.15B25,2013-06-25 02:01:00,
2013-06-24 19:06:00,62.1,56.2,29.73,ESE,114,0.0,2.0,81,0.00,,,0.22,WeatherCatV1.15B25,2013-06-25 02:06:00,
2013-06-24 19:11:00,62.1,56.5,29.73,SSE,153,0.0,2.0,82,0.00,,,0.22,WeatherCatV1.15B25,2013-06-25 02:11:00,
2013-06-24 19:16:00,62.3,56.7,29.73,South,172,3.0,3.0,82,0.00,,,0.22,WeatherCatV1.15B25,2013-06-25 02:16:00,
2013-06-24 19:21:00,62.4,57.2,29.74,SSE,165,2.0,2.0,83,0.00,,,0.22,WeatherCatV1.15B25,2013-06-25 02:21:00,
2013-06-24 19:26:00,62.2,57.3,29.74,SSE,153,2.0,5.0,84,0.00,,,0.22,WeatherCatV1.15B25,2013-06-25 02:26:00,
2013-06-24 19:31:00,62.0,57.1,29.74,SW,218,5.0,5.0,84,0.00,,,0.22,WeatherCatV1.15B25,2013-06-25 02:31:00,
2013-06-24 19:36:00,62.0,57.1,29.74,SW,223,1.0,5.0,84,0.00,,,0.22,WeatherCatV1.15B25,2013-06-25 02:36:00,
2013-06-24 19:41:00,62.0,56.8,29.74,SW,215,7.0,7.0,83,0.00,,,0.22,WeatherCatV1.15B25,2013-06-25 02:41:00,
2013-06-24 19:46:00,61.8,56.2,29.74,SSW,197,2.0,5.0,82,0.00,,,0.22,WeatherCatV1.15B25,2013-06-25 02:46:00,
2013-06-24 19:51:00,61.6,56.0,29.74,SSW,211,4.0,5.0,82,0.00,,,0.22,WeatherCatV1.15B25,2013-06-25 02:51:00,
2013-06-24 19:56:00,61.5,55.3,29.74,WSW,239,3.0,5.0,80,0.00,,,0.22,WeatherCatV1.15B25,2013-06-25 02:56:00,
2013-06-24 20:01:00,61.4,55.2,29.75,SSE,152,4.0,8.0,80,0.00,,,0.22,WeatherCatV1.15B25,2013-06-25 03:01:00,
2013-06-24 20:06:00,61.1,55.2,29.75,South,176,3.0,6.0,81,0.00,,,0.22,WeatherCatV1.15B25,2013-06-25 03:06:00,
2013-06-24 20:11:00,61.1,56.2,29.75,SSW,194,2.0,4.0,84,0.00,,,0.22,WeatherCatV1.15B25,2013-06-25 03:11:00,
2013-06-24 20:16:00,61.1,55.9,29.75,South,191,1.0,4.0,83,0.00,,,0.22,WeatherCatV1.15B25,2013-06-25 03:16:00,
2013-06-24 20:21:00,60.7,56.2,29.75,SSW,202,2.0,4.0,85,0.00,,,0.22,WeatherCatV1.15B25,2013-06-25 03:21:00,
2013-06-24 20:26:00,60.3,56.1,29.75,SSE,155,2.0,4.0,86,0.00,,,0.22,WeatherCatV1.15B25,2013-06-25 03:26:00,
2013-06-24 20:31:00,60.1,55.9,29.75,SSE,166,3.0,3.0,86,0.00,,,0.22,WeatherCatV1.15B25,2013-06-25 03:31:00,
2013-06-24 20:36:00,59.9,55.7,29.75,SW,214,2.0,5.0,86,0.00,,,0.22,WeatherCatV1.15B25,2013-06-25 03:36:00,
2013-06-24 20:41:00,59.8,55.9,29.75,SSE,166,2.0,6.0,87,0.00,,,0.22,WeatherCatV1.15B25,2013-06-25 03:41:00,
2013-06-24 20:46:00,59.7,56.1,29.75,SSE,166,2.0,4.0,88,0.00,,,0.22,WeatherCatV1.15B25,2013-06-25 03:46:00,
2013-06-24 20:51:00,59.5,56.3,29.75,SSE,153,2.0,4.0,89,0.00,,,0.22,WeatherCatV1.15B25,2013-06-25 03:51:00,
2013-06-24 20:56:00,59.3,56.4,29.75,ESE,115,1.0,2.0,90,0.00,,,0.22,WeatherCatV1.15B25,2013-06-25 03:56:00,
2013-06-24 21:01:00,59.2,56.3,29.75,SSE,156,2.0,3.0,90,0.00,,,0.22,WeatherCatV1.15B25,2013-06-25 04:01:00,
2013-06-24 21:06:00,59.2,56.3,29.75,SSE,150,0.0,2.0,90,0.00,,,0.22,WeatherCatV1.15B25,2013-06-25 04:06:00,
2013-06-24 21:11:00,59.1,56.2,29.75,SE,143,2.0,3.0,90,0.00,,,0.22,WeatherCatV1.15B25,2013-06-25 04:11:00,
2013-06-24 21:16:00,59.0,56.1,29.75,SE,135,0.0,2.0,90,0.00,,,0.22,WeatherCatV1.15B25,2013-06-25 04:16:00,
2013-06-24 21:21:00,58.9,56.0,29.75,SSE,165,1.0,3.0,90,0.00,,,0.22,WeatherCatV1.15B25,2013-06-25 04:21:00,
2013-06-24 21:26:00,58.8,55.9,29.76,East,84,3.0,4.0,90,0.00,,,0.22,WeatherCatV1.15B25,2013-06-25 04:26:00,
2013-06-24 21:31:00,58.7,56.1,29.76,ESE,119,3.0,4.0,91,0.00,,,0.22,WeatherCatV1.15B25,2013-06-25 04:31:00,
2013-06-24 21:36:00,58.4,55.8,29.76,ESE,103,0.0,2.0,91,0.00,,,0.22,WeatherCatV1.15B25,2013-06-25 04:36:00,
2013-06-24 21:41:00,58.2,55.9,29.76,ESE,117,0.0,3.0,92,0.00,,,0.22,WeatherCatV1.15B25,2013-06-25 04:41:00,
2013-06-24 21:46:00,58.0,55.7,29.76,ESE,115,3.0,7.0,92,0.00,,,0.22,WeatherCatV1.15B25,2013-06-25 04:46:00,
2013-06-24 21:51:00,57.8,55.5,29.76,SSE,165,1.0,6.0,92,0.00,,,0.22,WeatherCatV1.15B25,2013-06-25 04:51:00,
2013-06-24 21:56:00,57.5,55.2,29.76,ESE,113,2.0,5.0,92,0.00,,,0.22,WeatherCatV1.15B25,2013-06-25 04:56:00,
2013-06-24 22:01:00,57.3,55.3,29.76,East,86,1.0,6.0,93,0.00,,,0.22,WeatherCatV1.15B25,2013-06-25 05:01:00,
2013-06-24 22:06:00,57.3,55.3,29.76,SE,136,1.0,2.0,93,0.00,,,0.22,WeatherCatV1.15B25,2013-06-25 05:06:00,
2013-06-24 22:11:00,57.2,55.2,29.76,ESE,115,0.0,2.0,93,0.00,,,0.22,WeatherCatV1.15B25,2013-06-25 05:11:00,
2013-06-24 22:16:00,57.2,55.2,29.76,SSE,149,4.0,5.0,93,0.00,,,0.22,WeatherCatV1.15B25,2013-06-25 05:16:00,
2013-06-24 22:21:00,57.1,55.1,29.76,ENE,72,2.0,3.0,93,0.00,,,0.22,WeatherCatV1.15B25,2013-06-25 05:21:00,
2013-06-24 22:26:00,57.0,55.3,29.76,ESE,119,0.0,4.0,94,0.00,,,0.22,WeatherCatV1.15B25,2013-06-25 05:26:00,
2013-06-24 22:31:00,57.0,55.0,29.76,SE,131,1.0,2.0,93,0.00,,,0.22,WeatherCatV1.15B25,2013-06-25 05:31:00,
2013-06-24 22:36:00,56.9,55.2,29.75,South,169,0.0,4.0,94,0.00,,,0.22,WeatherCatV1.15B25,2013-06-25 05:36:00,
2013-06-24 22:41:00,56.8,54.8,29.75,East,79,0.0,1.0,93,0.00,,,0.22,WeatherCatV1.15B25,2013-06-25 05:41:00,
2013-06-24 22:46:00,56.7,54.7,29.75,East,91,2.0,2.0,93,0.00,,,0.22,WeatherCatV1.15B25,2013-06-25 05:46:00,
2013-06-24 22:51:00,56.7,54.7,29.76,ENE,77,2.0,2.0,93,0.00,,,0.22,WeatherCatV1.15B25,2013-06-25 05:51:00,
2013-06-24 22:56:00,56.6,54.9,29.75,ENE,77,0.0,1.0,94,0.00,,,0.22,WeatherCatV1.15B25,2013-06-25 05:56:00,
2013-06-24 23:01:00,56.5,54.8,29.75,SSE,150,0.0,2.0,94,0.00,,,0.22,WeatherCatV1.15B25,2013-06-25 06:01:00,
2013-06-24 23:06:00,56.5,54.8,29.75,NE,56,0.0,0.0,94,0.00,,,0.22,WeatherCatV1.15B25,2013-06-25 06:06:00,
2013-06-24 23:11:00,56.5,54.8,29.75,East,91,0.0,2.0,94,0.00,,,0.22,WeatherCatV1.15B25,2013-06-25 06:11:00,
2013-06-24 23:16:00,56.5,54.8,29.75,East,97,0.0,1.0,94,0.00,,,0.22,WeatherCatV1.15B25,2013-06-25 06:16:00,
2013-06-24 23:21:00,56.4,54.7,29.75,East,80,0.0,1.0,94,0.00,,,0.22,WeatherCatV1.15B25,2013-06-25 06:21:00,
2013-06-24 23:26:00,56.3,54.6,29.75,East,87,0.0,1.0,94,0.00,,,0.22,WeatherCatV1.15B25,2013-06-25 06:26:00,
2013-06-24 23:31:00,56.3,54.6,29.74,NE,49,0.0,0.0,94,0.00,,,0.22,WeatherCatV1.15B25,2013-06-25 06:31:00,
2013-06-24 23:36:00,56.2,54.5,29.74,NE,49,0.0,1.0,94,0.00,,,0.22,WeatherCatV1.15B25,2013-06-25 06:36:00,
2013-06-24 23:41:00,56.2,54.5,29.75,NE,47,1.0,2.0,94,0.00,,,0.22,WeatherCatV1.15B25,2013-06-25 06:41:00,
2013-06-24 23:46:00,56.1,54.4,29.75,ENE,61,0.0,1.0,94,0.00,,,0.22,WeatherCatV1.15B25,2013-06-25 06:46:00,
2013-06-24 23:51:00,56.0,54.3,29.74,ENE,69,0.0,0.0,94,0.00,,,0.22,WeatherCatV1.15B25,2013-06-25 06:51:00,
2013-06-24 23:56:00,55.9,54.2,29.75,ENE,70,0.0,0.0,94,0.00,,,0.22,WeatherCatV1.15B25,2013-06-25 06:56:00,